#timestamp,LO_Frequency,Hit,StdDev 
1644501615.8,286046997.5,N
1644501635.6,286046999.7,N
1644501655.5,286047001.1,N
1644501675.3,286046999.7,N
1644501695.1,286046998.0,N
1644501715.9,286046995.8,N
1644501735.7,286046995.0,N
1644501755.5,286046998.0,N
1644501775.4,286046996.8,N
1644501795.2,286046993.6,N
1644501815.0,286046994.8,N
1644501816.0,286046994.8,N
1644501835.8,286046988.6,Y
1644501855.6,286046992.2,P
1644501875.5,286046994.5,N
1644501895.3,286046990.4,P
1644501915.1,286046987.4,Y
1644501935.9,286046993.0,P
1644501955.7,286046992.7,P
1644501975.6,286047002.7,P
1644501995.4,286047002.5,N
1644502015.2,286047001.6,N
1644502035.1,286046998.7,N
1644502036.0,286046998.7,N
1644502055.8,286047000.3,N
1644502075.6,286047000.4,N
1644502095.5,286047004.5,N
1644502115.3,286047006.9,N
1644502135.2,286047004.4,N
1644502155.9,286047004.0,N
1644502175.7,286047002.1,N
1644502195.6,286046997.2,N
1644502215.4,286046997.3,N
1644502235.2,286046995.9,N
1644502255.1,286046998.0,N
1644502256.0,286046998.0,N
1644502275.8,286046995.3,N
1644502295.7,286046992.1,N
1644502315.5,286046990.7,N
1644502335.3,286046992.8,N
1644502355.2,286046988.5,N
1644502375.9,286046992.6,N
1644502395.7,286046993.5,N
1644502415.6,286046992.3,N
1644502435.4,286046995.9,N
1644502455.3,286046996.1,N
1644502475.1,286046998.8,N
1644502476.0,286046998.8,N
1644502495.8,286047002.6,N
1644502515.7,286046997.3,N
1644502535.5,286046993.9,N
1644502555.3,286046997.7,N
1644502575.2,286047006.5,N
1644502595.0,286047009.1,N
1644502595.9,286047009.1,N
1644502615.8,286047002.0,N
1644502635.6,286047002.4,N
1644502655.4,286047002.3,N
1644502675.3,286046999.7,N
1644502695.1,286047005.6,N
1644502715.8,286047013.2,N
1644502735.7,286047020.6,Y
1644502755.5,286047027.9,P
1644502775.4,286047029.3,N
1644502795.2,286047026.8,N
1644502815.0,286047022.5,N
1644502815.9,286047022.5,N
1644502835.8,286047026.0,N
1644502855.6,286047032.3,Y
1644502875.4,286047009.5,P
1644502895.3,286047007.8,N
1644502915.1,286047010.9,N
1644502935.9,286047012.3,N
1644502955.7,286047012.0,N
1644502975.5,286047012.8,N
1644502995.4,286047012.6,N
1644503015.2,286047020.4,Y
1644503035.1,286047003.9,P
1644503036.0,286047003.9,N
1644503055.8,286047003.7,N
1644503075.6,286047002.3,N
1644503095.5,286047007.1,N
1644503115.3,286047006.3,N
1644503135.1,286047003.8,N
1644503155.9,286047005.9,N
1644503175.7,286047007.3,N
1644503195.6,286047008.3,N
1644503215.4,286047014.8,Y
1644503235.2,286047012.7,P
1644503255.1,286047015.1,P
1644503256.0,286047015.1,P
1644503275.8,286047010.3,N
1644503295.6,286047011.2,Y
1644503315.5,286047000.6,P
1644503335.3,286047000.5,N
1644503355.2,286046996.7,N
1644503375.9,286046999.0,N
1644503395.7,286046996.5,N
1644503415.6,286047000.3,N
1644503435.4,286046999.7,N
1644503455.2,286046998.2,N
1644503475.1,286047003.8,N
1644503476.0,286047003.8,N
1644503495.8,286047002.7,N
1644503515.7,286047003.9,N
1644503535.5,286047002.0,N
1644503555.3,286047007.1,N
1644503575.2,286047006.8,N
1644503595.0,286047009.6,N
1644503595.9,286047009.6,N
1644503615.7,286047011.1,N
1644503635.6,286047011.3,N
1644503655.4,286047013.9,N
1644503675.3,286047007.6,N
1644503695.1,286047007.2,N
1644503696.0,286047007.2,N
1644503715.8,286047004.5,N
1644503735.7,286047006.4,N
1644503755.5,286047009.6,N
1644503775.4,286047004.9,N
1644503795.2,286046999.9,N
1644503815.0,286047001.4,N
1644503815.9,286047001.4,N
1644503835.8,286047006.0,N
1644503855.6,286047008.1,N
1644503875.4,286047009.1,N
1644503895.3,286047009.9,N
1644503915.1,286047005.3,N
1644503935.9,286047001.1,N
1644503955.7,286046993.5,N
1644503975.5,286046998.5,N
1644503995.4,286046998.8,N
1644504015.2,286047000.0,N
1644504035.0,286047003.5,N
1644504035.9,286047003.5,N
1644504055.8,286047006.8,N
1644504075.6,286047006.3,N
1644504095.5,286047002.9,N
1644504115.3,286046999.5,N
1644504135.1,286046998.4,N
1644504155.9,286047004.3,N
1644504175.7,286047005.1,N
1644504195.5,286047004.3,N
1644504215.4,286046997.2,N
1644504235.2,286046994.5,N
1644504255.1,286046991.3,N
1644504256.0,286046991.3,N
1644504275.8,286046991.6,N
1644504295.6,286046989.5,N
1644504315.5,286046986.7,N
1644504335.3,286046978.0,Y
1644504355.1,286046976.7,P
1644504375.9,286046983.1,N
1644504395.7,286046980.6,N
1644504415.6,286046977.3,N
1644504435.4,286046973.3,Y
1644504455.2,286046988.5,P
1644504475.1,286046984.1,P
1644504476.0,286046984.1,P
1644504495.8,286046982.6,Y
1644504515.7,286047002.5,P
1644504535.5,286047003.4,N
1644504555.3,286047009.1,N
1644504575.2,286047008.5,N
1644504595.0,286047009.6,N
1644504595.9,286047009.6,N
1644504615.7,286047006.1,N
1644504635.6,286047001.8,N
1644504655.4,286047003.6,N
1644504675.3,286047007.5,N
1644504695.1,286047001.8,N
1644504696.0,286047001.8,N
1644504715.8,286047005.0,N
1644504735.7,286047005.4,N
1644504755.5,286047002.7,N
1644504775.4,286046996.8,N
1644504795.2,286046999.4,N
1644504815.0,286046995.0,N
1644504815.9,286046995.0,N
1644504835.8,286046991.7,N
1644504855.6,286046992.9,N
1644504875.4,286046990.1,N
1644504895.3,286046995.4,N
1644504915.1,286046995.0,N
1644504935.9,286047003.2,N
1644504955.7,286047010.6,N
1644504975.5,286047007.0,N
1644504995.4,286047005.1,N
1644505015.2,286047001.3,N
1644505035.0,286047003.1,N
1644505035.9,286047003.1,N
1644505055.8,286047008.5,N
1644505075.6,286047007.7,N
1644505095.5,286047006.7,N
1644505115.3,286047005.0,N
1644505135.1,286047001.4,N
1644505155.9,286047001.6,N
1644505175.7,286047010.6,N
1644505195.5,286047013.3,N
